Time,TemperatureF,DewpointF,PressureIn,WindDirection,WindDirectionDegrees,WindSpeedMPH,WindSpeedGustMPH,Humidity,HourlyPrecipIn,Conditions,Clouds,dailyrainin,SoftwareType,DateUTC
2013-02-21 00:05:00,22.1,9.6,30.33,East,94,13.0,13.0,58,0.00,,,0.00,Wunderground v.1.15,2013-02-21 06:05:00,
2013-02-21 00:11:00,22.1,9.6,30.33,East,94,12.0,12.0,58,0.00,,,0.00,Wunderground v.1.15,2013-02-21 06:11:00,
2013-02-21 00:16:00,22.0,9.5,30.33,East,100,11.0,14.0,58,0.00,,,0.00,Wunderground v.1.15,2013-02-21 06:16:00,
2013-02-21 00:21:00,22.0,9.5,30.33,ESE,102,11.0,12.0,58,0.00,,,0.00,Wunderground v.1.15,2013-02-21 06:21:00,
2013-02-21 00:27:00,22.0,9.5,30.33,ESE,106,11.0,12.0,58,0.00,,,0.00,Wunderground v.1.15,2013-02-21 06:27:00,
2013-02-21 00:32:00,22.0,9.5,30.33,ESE,110,11.0,11.0,58,0.00,,,0.00,Wunderground v.1.15,2013-02-21 06:32:00,
2013-02-21 00:38:00,22.0,9.5,30.33,ESE,106,11.0,15.0,58,0.00,,,0.00,Wunderground v.1.15,2013-02-21 06:38:00,
2013-02-21 00:44:00,22.0,9.5,30.33,East,92,11.0,14.0,58,0.00,,,0.00,Wunderground v.1.15,2013-02-21 06:44:00,
2013-02-21 00:49:00,22.0,9.5,30.34,ESE,105,11.0,14.0,58,0.00,,,0.00,Wunderground v.1.15,2013-02-21 06:49:00,
2013-02-21 00:55:00,22.0,9.5,30.35,ESE,118,9.0,11.0,58,0.00,,,0.00,Wunderground v.1.15,2013-02-21 06:55:00,
2013-02-21 01:01:00,22.0,9.0,30.35,SE,132,10.0,13.0,57,0.00,,,0.00,weatherlink.com 1.10,2013-02-21 07:01:00,
2013-02-21 01:06:00,22.1,9.2,30.35,SE,126,8.0,13.0,57,0.00,,,0.00,Wunderground v.1.15,2013-02-21 07:06:00,
2013-02-21 01:11:00,22.1,9.2,30.35,ESE,123,8.0,8.0,57,0.00,,,0.00,Wunderground v.1.15,2013-02-21 07:11:00,
2013-02-21 01:20:00,22.1,9.0,30.34,ESE,107,8.0,13.0,57,0.00,,,0.00,weatherlink.com 1.10,2013-02-21 07:20:00,
2013-02-21 01:26:00,22.0,9.1,30.34,SE,126,8.0,12.0,57,0.00,,,0.00,Wunderground v.1.15,2013-02-21 07:26:00,
2013-02-21 01:31:00,21.9,9.0,30.34,ESE,121,5.0,11.0,58,0.00,,,0.00,weatherlink.com 1.10,2013-02-21 07:31:00,
2013-02-21 01:37:00,21.8,9.3,30.34,SE,126,6.0,9.0,58,0.00,,,0.00,Wunderground v.1.15,2013-02-21 07:37:00,
2013-02-21 01:45:00,21.8,8.9,30.33,ESE,111,7.0,7.0,57,0.00,,,0.00,Wunderground v.1.15,2013-02-21 07:45:00,
2013-02-21 01:52:00,21.9,9.4,30.33,East,100,8.0,8.0,58,0.00,,,0.00,Wunderground v.1.15,2013-02-21 07:52:00,
2013-02-21 01:57:00,21.9,9.4,30.33,ESE,115,8.0,10.0,58,0.00,,,0.00,Wunderground v.1.15,2013-02-21 07:57:00,
2013-02-21 02:02:00,21.8,9.3,30.32,East,101,8.0,10.0,58,0.00,,,0.00,Wunderground v.1.15,2013-02-21 08:02:00,
2013-02-21 02:08:00,21.7,9.2,30.31,ESE,115,10.0,13.0,58,0.00,,,0.00,Wunderground v.1.15,2013-02-21 08:08:00,
2013-02-21 02:14:00,21.7,9.6,30.30,East,89,10.0,13.0,59,0.00,,,0.00,Wunderground v.1.15,2013-02-21 08:14:00,
2013-02-21 02:20:00,21.6,9.5,30.28,East,94,10.0,10.0,59,0.00,,,0.00,Wunderground v.1.15,2013-02-21 08:20:00,
2013-02-21 02:25:00,21.5,9.4,30.27,East,92,11.0,14.0,59,0.00,,,0.00,Wunderground v.1.15,2013-02-21 08:25:00,
2013-02-21 02:31:00,21.2,9.0,30.30,ESE,113,4.0,17.0,60,0.00,,,0.00,weatherlink.com 1.10,2013-02-21 08:31:00,
2013-02-21 02:36:00,21.3,9.6,30.31,East,101,8.0,11.0,60,0.00,,,0.00,Wunderground v.1.15,2013-02-21 08:36:00,
2013-02-21 02:42:00,21.6,10.2,30.29,East,101,8.0,8.0,61,0.00,,,0.00,Wunderground v.1.15,2013-02-21 08:42:00,
2013-02-21 02:47:00,21.6,9.8,30.28,ESE,103,9.0,11.0,60,0.00,,,0.00,Wunderground v.1.15,2013-02-21 08:47:00,
2013-02-21 02:53:00,21.7,9.9,30.27,ESE,109,9.0,12.0,60,0.00,,,0.00,Wunderground v.1.15,2013-02-21 08:53:00,
2013-02-21 02:59:00,21.7,9.9,30.28,East,100,9.0,13.0,60,0.00,,,0.00,Wunderground v.1.15,2013-02-21 08:59:00,
2013-02-21 03:05:00,21.7,10.3,30.28,East,95,8.0,11.0,61,0.00,,,0.00,Wunderground v.1.15,2013-02-21 09:05:00,
2013-02-21 03:11:00,21.7,9.9,30.27,East,96,8.0,8.0,60,0.00,,,0.00,Wunderground v.1.15,2013-02-21 09:11:00,
2013-02-21 03:17:00,21.6,10.0,30.25,East,92,13.0,14.0,60,0.00,,,0.00,weatherlink.com 1.10,2013-02-21 09:17:00,
2013-02-21 03:22:00,21.6,9.8,30.25,East,94,11.0,11.0,60,0.00,,,0.00,Wunderground v.1.15,2013-02-21 09:22:00,
2013-02-21 03:28:00,21.5,10.1,30.23,East,84,11.0,15.0,61,0.00,,,0.00,Wunderground v.1.15,2013-02-21 09:28:00,
2013-02-21 03:34:00,21.5,10.1,30.23,East,96,10.0,13.0,61,0.00,,,0.00,Wunderground v.1.15,2013-02-21 09:34:00,
2013-02-21 03:40:00,21.5,10.1,30.23,East,97,10.0,13.0,61,0.00,,,0.00,Wunderground v.1.15,2013-02-21 09:40:00,
2013-02-21 03:46:00,21.5,10.0,30.23,East,98,14.0,15.0,61,0.00,,,0.00,weatherlink.com 1.10,2013-02-21 09:46:00,
2013-02-21 03:51:00,21.6,10.6,30.24,ESE,103,12.0,16.0,62,0.00,,,0.00,Wunderground v.1.15,2013-02-21 09:51:00,
2013-02-21 03:56:00,21.6,10.6,30.24,East,101,13.0,16.0,62,0.00,,,0.00,Wunderground v.1.15,2013-02-21 09:56:00,
2013-02-21 04:01:00,21.6,10.0,30.24,East,95,11.0,17.0,62,0.00,,,0.00,weatherlink.com 1.10,2013-02-21 10:01:00,
2013-02-21 04:07:00,21.7,10.7,30.24,East,99,13.0,16.0,62,0.00,,,0.00,Wunderground v.1.15,2013-02-21 10:07:00,
2013-02-21 04:13:00,21.8,10.8,30.24,East,92,14.0,16.0,62,0.00,,,0.00,Wunderground v.1.15,2013-02-21 10:13:00,
2013-02-21 04:19:00,21.7,10.7,30.24,East,96,14.0,17.0,62,0.00,,,0.00,Wunderground v.1.15,2013-02-21 10:19:00,
2013-02-21 04:25:00,21.8,10.8,30.24,East,101,13.0,16.0,62,0.00,,,0.00,Wunderground v.1.15,2013-02-21 10:25:00,
2013-02-21 04:31:00,21.8,10.4,30.23,ESE,114,13.0,13.0,61,0.00,,,0.00,Wunderground v.1.15,2013-02-21 10:31:00,
2013-02-21 04:36:00,21.7,10.7,30.22,ESE,108,13.0,15.0,62,0.00,,,0.00,Wunderground v.1.15,2013-02-21 10:36:00,
2013-02-21 04:42:00,21.7,10.7,30.22,ESE,103,12.0,12.0,62,0.00,,,0.00,Wunderground v.1.15,2013-02-21 10:42:00,
2013-02-21 04:47:00,21.7,10.7,30.22,ESE,109,11.0,13.0,62,0.00,,,0.00,Wunderground v.1.15,2013-02-21 10:47:00,
2013-02-21 04:53:00,21.8,10.8,30.22,ESE,110,12.0,15.0,62,0.00,,,0.00,Wunderground v.1.15,2013-02-21 10:53:00,
2013-02-21 04:59:00,21.8,10.8,30.21,ESE,115,12.0,15.0,62,0.00,,,0.00,Wunderground v.1.15,2013-02-21 10:59:00,
2013-02-21 05:04:00,21.8,10.4,30.21,ESE,105,13.0,16.0,61,0.00,,,0.00,Wunderground v.1.15,2013-02-21 11:04:00,
2013-02-21 05:10:00,21.8,10.4,30.20,East,99,15.0,17.0,61,0.00,,,0.00,Wunderground v.1.15,2013-02-21 11:10:00,
2013-02-21 05:16:00,21.7,10.7,30.20,ENE,78,14.0,18.0,62,0.00,,,0.00,Wunderground v.1.15,2013-02-21 11:16:00,
2013-02-21 05:21:00,21.7,10.7,30.20,East,90,13.0,15.0,62,0.00,,,0.00,Wunderground v.1.15,2013-02-21 11:21:00,
2013-02-21 05:26:00,21.7,10.7,30.20,East,99,11.0,15.0,62,0.00,,,0.00,Wunderground v.1.15,2013-02-21 11:26:00,
2013-02-21 05:31:00,21.7,10.7,30.21,East,96,12.0,17.0,62,0.00,,,0.00,Wunderground v.1.15,2013-02-21 11:31:00,
2013-02-21 05:36:00,21.8,11.1,30.21,East,97,13.0,17.0,63,0.00,,,0.00,Wunderground v.1.15,2013-02-21 11:36:00,
2013-02-21 05:42:00,21.8,10.8,30.21,ESE,107,12.0,12.0,62,0.00,,,0.00,Wunderground v.1.15,2013-02-21 11:42:00,
2013-02-21 05:47:00,21.8,10.8,30.22,ESE,104,12.0,12.0,62,0.00,,,0.00,Wunderground v.1.15,2013-02-21 11:47:00,
2013-02-21 05:53:00,21.8,10.8,30.23,ESE,115,10.0,15.0,62,0.00,,,0.00,Wunderground v.1.15,2013-02-21 11:53:00,
2013-02-21 05:59:00,21.8,10.8,30.23,ESE,117,12.0,16.0,62,0.00,,,0.00,Wunderground v.1.15,2013-02-21 11:59:00,
2013-02-21 06:04:00,21.8,10.8,30.23,ESE,116,13.0,13.0,62,0.00,,,0.00,Wunderground v.1.15,2013-02-21 12:04:00,
2013-02-21 06:09:00,21.8,10.8,30.22,ESE,108,12.0,16.0,62,0.00,,,0.00,Wunderground v.1.15,2013-02-21 12:09:00,
2013-02-21 06:15:00,21.9,11.2,30.22,ESE,103,12.0,13.0,63,0.00,,,0.00,Wunderground v.1.15,2013-02-21 12:15:00,
2013-02-21 06:21:00,21.9,11.2,30.22,ESE,110,11.0,13.0,63,0.00,,,0.00,Wunderground v.1.15,2013-02-21 12:21:00,
2013-02-21 06:26:00,21.9,11.2,30.21,ESE,103,11.0,16.0,63,0.00,,,0.00,Wunderground v.1.15,2013-02-21 12:26:00,
2013-02-21 06:32:00,21.8,11.0,30.20,ESE,102,14.0,18.0,63,0.00,,,0.00,weatherlink.com 1.10,2013-02-21 12:32:00,
2013-02-21 06:37:00,21.8,11.1,30.20,ESE,107,13.0,17.0,63,0.00,,,0.00,Wunderground v.1.15,2013-02-21 12:37:00,
2013-02-21 06:43:00,21.8,11.1,30.20,ESE,103,14.0,17.0,63,0.00,,,0.00,Wunderground v.1.15,2013-02-21 12:43:00,
2013-02-21 06:49:00,21.8,11.1,30.21,East,95,14.0,17.0,63,0.00,,,0.00,Wunderground v.1.15,2013-02-21 12:49:00,
2013-02-21 06:55:00,21.8,11.5,30.20,East,99,12.0,15.0,64,0.00,,,0.00,Wunderground v.1.15,2013-02-21 12:55:00,
2013-02-21 07:01:00,21.7,11.4,30.20,East,91,13.0,13.0,64,0.00,,,0.00,Wunderground v.1.15,2013-02-21 13:01:00,
2013-02-21 07:07:00,21.7,11.4,30.20,ESE,102,13.0,17.0,64,0.00,,,0.00,Wunderground v.1.15,2013-02-21 13:07:00,
2013-02-21 07:13:00,21.6,11.3,30.20,East,84,14.0,16.0,64,0.00,,,0.00,Wunderground v.1.15,2013-02-21 13:13:00,
2013-02-21 07:18:00,21.6,11.0,30.20,ESE,115,13.0,21.0,64,0.00,,,0.00,weatherlink.com 1.10,2013-02-21 13:18:00,
2013-02-21 07:24:00,21.5,11.5,30.19,East,98,15.0,16.0,65,0.00,,,0.00,Wunderground v.1.15,2013-02-21 13:24:00,
2013-02-21 07:30:00,21.5,11.5,30.18,East,93,16.0,16.0,65,0.00,,,0.00,Wunderground v.1.15,2013-02-21 13:30:00,
2013-02-21 07:36:00,21.3,11.4,30.18,East,84,16.0,21.0,65,0.00,,,0.00,Wunderground v.1.15,2013-02-21 13:36:00,
2013-02-21 07:42:00,21.3,11.7,30.19,East,92,16.0,16.0,66,0.00,,,0.00,Wunderground v.1.15,2013-02-21 13:42:00,
2013-02-21 07:48:00,21.3,12.0,30.19,East,90,21.0,22.0,66,0.00,,,0.00,weatherlink.com 1.10,2013-02-21 13:48:00,
2013-02-21 07:54:00,21.3,11.7,30.19,East,101,15.0,15.0,66,0.00,,,0.00,Wunderground v.1.15,2013-02-21 13:54:00,
2013-02-21 07:59:00,21.3,11.7,30.19,ESE,111,14.0,18.0,66,0.00,,,0.00,Wunderground v.1.15,2013-02-21 13:59:00,
2013-02-21 08:04:00,21.4,12.1,30.19,East,92,14.0,15.0,67,0.00,,,0.00,Wunderground v.1.15,2013-02-21 14:04:00,
2013-02-21 08:10:00,21.5,11.9,30.19,ESE,106,13.0,13.0,66,0.00,,,0.00,Wunderground v.1.15,2013-02-21 14:10:00,
2013-02-21 08:15:00,21.5,11.9,30.19,ESE,103,12.0,17.0,66,0.00,,,0.00,Wunderground v.1.15,2013-02-21 14:15:00,
2013-02-21 08:21:00,21.5,11.9,30.20,ESE,107,12.0,14.0,66,0.00,,,0.00,Wunderground v.1.15,2013-02-21 14:21:00,
2013-02-21 08:27:00,21.6,12.0,30.21,East,101,12.0,15.0,66,0.00,,,0.00,Wunderground v.1.15,2013-02-21 14:27:00,
2013-02-21 08:33:00,21.6,12.0,30.22,ESE,105,15.0,18.0,66,0.00,,,0.00,weatherlink.com 1.10,2013-02-21 14:33:00,
2013-02-21 08:38:00,21.6,12.0,30.23,East,96,14.0,17.0,66,0.00,,,0.00,Wunderground v.1.15,2013-02-21 14:38:00,
2013-02-21 08:43:00,21.8,12.5,30.22,ESE,114,13.0,14.0,67,0.00,,,0.00,Wunderground v.1.15,2013-02-21 14:43:00,
2013-02-21 08:48:00,21.8,12.5,30.22,ESE,107,12.0,15.0,67,0.00,,,0.00,Wunderground v.1.15,2013-02-21 14:48:00,
2013-02-21 08:54:00,21.9,12.6,30.22,ESE,102,13.0,16.0,67,0.00,,,0.00,Wunderground v.1.15,2013-02-21 14:54:00,
2013-02-21 08:59:00,22.0,12.7,30.22,East,101,12.0,16.0,67,0.00,,,0.00,Wunderground v.1.15,2013-02-21 14:59:00,
2013-02-21 09:04:00,22.2,12.9,30.21,ESE,102,12.0,12.0,67,0.00,,,0.00,Wunderground v.1.15,2013-02-21 15:04:00,
2013-02-21 09:10:00,22.3,14.6,30.21,ESE,112,11.0,11.0,72,0.00,,,0.00,Wunderground v.1.15,2013-02-21 15:10:00,
2013-02-21 09:17:00,22.3,13.0,30.21,ESE,103,13.0,14.0,67,0.00,,,0.00,Wunderground v.1.15,2013-02-21 15:17:00,
2013-02-21 09:22:00,22.3,12.7,30.21,ESE,111,13.0,13.0,66,0.00,,,0.00,Wunderground v.1.15,2013-02-21 15:22:00,
2013-02-21 09:28:00,22.4,12.8,30.21,East,99,14.0,16.0,66,0.00,,,0.00,Wunderground v.1.15,2013-02-21 15:28:00,
2013-02-21 09:34:00,22.6,13.0,30.20,ESE,102,10.0,18.0,66,0.00,,,0.00,weatherlink.com 1.10,2013-02-21 15:34:00,
2013-02-21 09:40:00,22.5,12.8,30.19,East,101,13.0,13.0,66,0.00,,,0.00,Wunderground v.1.15,2013-02-21 15:40:00,
2013-02-21 09:46:00,22.7,12.7,30.18,ESE,108,15.0,20.0,65,0.00,,,0.00,Wunderground v.1.15,2013-02-21 15:46:00,
2013-02-21 09:52:00,23.1,13.1,30.18,ESE,103,14.0,18.0,65,0.00,,,0.00,Wunderground v.1.15,2013-02-21 15:52:00,
2013-02-21 09:58:00,23.1,13.1,30.18,East,90,14.0,18.0,65,0.00,,,0.00,Wunderground v.1.15,2013-02-21 15:58:00,
2013-02-21 10:04:00,23.1,13.1,30.18,ESE,102,15.0,18.0,65,0.00,,,0.00,Wunderground v.1.15,2013-02-21 16:04:00,
2013-02-21 10:10:00,23.2,12.8,30.17,East,98,15.0,17.0,64,0.00,,,0.00,Wunderground v.1.15,2013-02-21 16:10:00,
2013-02-21 10:15:00,23.2,12.8,30.16,East,95,15.0,17.0,64,0.00,,,0.00,Wunderground v.1.15,2013-02-21 16:15:00,
2013-02-21 10:20:00,23.4,13.0,30.16,East,89,15.0,15.0,64,0.00,,,0.00,Wunderground v.1.15,2013-02-21 16:20:00,
2013-02-21 10:26:00,23.6,13.2,30.15,East,92,14.0,15.0,64,0.00,,,0.00,Wunderground v.1.15,2013-02-21 16:26:00,
2013-02-21 10:32:00,23.9,13.1,30.15,East,99,14.0,22.0,63,0.00,,,0.00,Wunderground v.1.15,2013-02-21 16:32:00,
2013-02-21 10:37:00,24.0,12.9,30.14,ESE,108,14.0,22.0,62,0.00,,,0.00,Wunderground v.1.15,2013-02-21 16:37:00,
2013-02-21 10:42:00,24.3,13.1,30.14,East,92,15.0,16.0,62,0.00,,,0.00,Wunderground v.1.15,2013-02-21 16:42:00,
2013-02-21 10:48:00,24.7,13.1,30.13,ESE,103,15.0,18.0,61,0.00,,,0.00,Wunderground v.1.15,2013-02-21 16:48:00,
2013-02-21 10:54:00,24.9,13.3,30.13,ESE,103,16.0,16.0,61,0.00,,,0.00,Wunderground v.1.15,2013-02-21 16:54:00,
2013-02-21 10:59:00,25.0,12.7,30.13,East,96,16.0,22.0,59,0.00,,,0.00,Wunderground v.1.15,2013-02-21 16:59:00,
2013-02-21 11:05:00,24.8,12.9,30.12,ESE,110,16.0,18.0,60,0.00,,,0.00,Wunderground v.1.15,2013-02-21 17:05:00,
2013-02-21 11:10:00,24.8,12.9,30.13,ESE,105,16.0,16.0,60,0.00,,,0.00,Wunderground v.1.15,2013-02-21 17:10:00,
2013-02-21 11:18:00,25.2,13.0,30.13,East,97,17.0,22.0,60,0.00,,,0.00,weatherlink.com 1.10,2013-02-21 17:18:00,
2013-02-21 11:24:00,25.2,13.2,30.13,ESE,107,15.0,23.0,60,0.00,,,0.00,Wunderground v.1.15,2013-02-21 17:24:00,
2013-02-21 11:29:00,25.2,12.9,30.12,East,92,17.0,23.0,59,0.00,,,0.00,Wunderground v.1.15,2013-02-21 17:29:00,
2013-02-21 11:34:00,25.2,12.9,30.13,East,92,17.0,19.0,59,0.00,,,0.00,Wunderground v.1.15,2013-02-21 17:34:00,
2013-02-21 11:39:00,25.2,13.2,30.12,East,98,16.0,20.0,60,0.00,,,0.00,Wunderground v.1.15,2013-02-21 17:39:00,
2013-02-21 11:45:00,24.9,13.3,30.11,East,79,18.0,23.0,61,0.00,,,0.00,Wunderground v.1.15,2013-02-21 17:45:00,
2013-02-21 11:51:00,24.3,14.2,30.11,ESE,113,19.0,19.0,65,0.00,,,0.00,Wunderground v.1.15,2013-02-21 17:51:00,
2013-02-21 11:57:00,23.9,15.5,30.11,East,93,18.0,22.0,70,0.00,,,0.00,Wunderground v.1.15,2013-02-21 17:57:00,
2013-02-21 12:02:00,23.3,16.2,30.11,ESE,105,17.0,18.0,74,0.00,,,0.00,Wunderground v.1.15,2013-02-21 18:02:00,
2013-02-21 12:07:00,22.9,17.1,30.10,East,99,16.0,18.0,78,0.00,,,0.00,Wunderground v.1.15,2013-02-21 18:07:00,
2013-02-21 12:13:00,22.6,17.4,30.10,ESE,106,15.0,18.0,80,0.00,,,0.00,Wunderground v.1.15,2013-02-21 18:13:00,
2013-02-21 12:19:00,22.4,17.5,30.09,East,94,15.0,18.0,81,0.00,,,0.00,Wunderground v.1.15,2013-02-21 18:19:00,
2013-02-21 12:24:00,22.3,17.6,30.08,East,86,15.0,21.0,82,0.00,,,0.00,Wunderground v.1.15,2013-02-21 18:24:00,
2013-02-21 12:30:00,22.2,17.8,30.08,East,96,16.0,17.0,83,0.00,,,0.00,Wunderground v.1.15,2013-02-21 18:30:00,
2013-02-21 12:36:00,22.3,18.2,30.06,East,94,13.0,18.0,84,0.00,,,0.00,Wunderground v.1.15,2013-02-21 18:36:00,
2013-02-21 12:41:00,22.0,17.9,30.06,East,89,15.0,17.0,84,0.00,,,0.00,Wunderground v.1.15,2013-02-21 18:41:00,
2013-02-21 12:47:00,22.0,18.2,30.06,East,92,15.0,21.0,85,0.00,,,0.00,Wunderground v.1.15,2013-02-21 18:47:00,
2013-02-21 12:52:00,22.2,18.7,30.06,East,90,13.0,14.0,86,0.00,,,0.00,Wunderground v.1.15,2013-02-21 18:52:00,
2013-02-21 12:57:00,22.2,18.7,30.07,East,92,12.0,15.0,86,0.00,,,0.00,Wunderground v.1.15,2013-02-21 18:57:00,
2013-02-21 13:03:00,22.2,18.7,30.07,East,84,12.0,17.0,86,0.00,,,0.00,Wunderground v.1.15,2013-02-21 19:03:00,
2013-02-21 13:08:00,22.1,18.8,30.08,East,87,12.0,17.0,87,0.00,,,0.00,Wunderground v.1.15,2013-02-21 19:08:00,
2013-02-21 13:13:00,21.8,18.5,30.07,East,80,14.0,17.0,87,0.00,,,0.00,Wunderground v.1.15,2013-02-21 19:13:00,
2013-02-21 13:19:00,21.8,19.0,30.08,East,99,14.0,23.0,87,0.00,,,0.00,weatherlink.com 1.10,2013-02-21 19:19:00,
2013-02-21 13:24:00,21.8,18.5,30.07,East,95,12.0,15.0,87,0.00,,,0.00,Wunderground v.1.15,2013-02-21 19:24:00,
2013-02-21 13:30:00,21.8,18.5,30.07,East,91,12.0,13.0,87,0.00,,,0.00,Wunderground v.1.15,2013-02-21 19:30:00,
2013-02-21 13:35:00,21.8,18.8,30.06,East,90,11.0,13.0,88,0.00,,,0.00,Wunderground v.1.15,2013-02-21 19:35:00,
2013-02-21 13:40:00,21.7,18.7,30.06,East,81,11.0,11.0,88,0.00,,,0.00,Wunderground v.1.15,2013-02-21 19:40:00,
2013-02-21 13:46:00,21.9,18.9,30.06,East,90,9.0,13.0,88,0.00,,,0.00,Wunderground v.1.15,2013-02-21 19:46:00,
2013-02-21 13:51:00,22.0,19.0,30.05,East,80,9.0,9.0,88,0.00,,,0.00,Wunderground v.1.15,2013-02-21 19:51:00,
2013-02-21 13:57:00,22.1,19.4,30.05,ENE,74,9.0,9.0,89,0.00,,,0.00,Wunderground v.1.15,2013-02-21 19:57:00,
2013-02-21 14:03:00,22.2,19.5,30.05,East,92,10.0,13.0,89,0.00,,,0.00,Wunderground v.1.15,2013-02-21 20:03:00,
2013-02-21 14:08:00,22.3,19.6,30.05,ENE,72,10.0,15.0,89,0.00,,,0.00,Wunderground v.1.15,2013-02-21 20:08:00,
2013-02-21 14:13:00,22.5,19.7,30.04,ENE,71,10.0,11.0,89,0.00,,,0.00,Wunderground v.1.15,2013-02-21 20:13:00,
2013-02-21 14:19:00,22.7,20.0,30.04,East,82,9.0,15.0,89,0.00,,,0.00,weatherlink.com 1.10,2013-02-21 20:19:00,
2013-02-21 14:25:00,22.7,19.9,30.03,East,86,10.0,13.0,89,0.00,,,0.00,Wunderground v.1.15,2013-02-21 20:25:00,
2013-02-21 14:31:00,22.8,20.0,30.03,ENE,71,10.0,10.0,89,0.00,,,0.00,Wunderground v.1.15,2013-02-21 20:31:00,
2013-02-21 14:36:00,22.9,20.1,30.03,East,86,10.0,11.0,89,0.00,,,0.00,Wunderground v.1.15,2013-02-21 20:36:00,
2013-02-21 14:42:00,22.7,19.9,30.03,East,80,11.0,14.0,89,0.00,,,0.00,Wunderground v.1.15,2013-02-21 20:42:00,
2013-02-21 14:47:00,22.7,19.9,30.03,East,80,11.0,14.0,89,0.00,,,0.00,Wunderground v.1.15,2013-02-21 20:47:00,
2013-02-21 14:53:00,22.9,20.1,30.03,East,88,10.0,12.0,89,0.00,,,0.00,Wunderground v.1.15,2013-02-21 20:53:00,
2013-02-21 14:59:00,22.8,20.0,30.02,East,101,10.0,12.0,89,0.00,,,0.00,Wunderground v.1.15,2013-02-21 20:59:00,
2013-02-21 15:04:00,22.6,20.0,30.02,East,88,13.0,21.0,89,0.00,,,0.00,weatherlink.com 1.10,2013-02-21 21:04:00,
2013-02-21 15:10:00,22.5,19.7,30.02,ENE,76,11.0,11.0,89,0.00,,,0.00,Wunderground v.1.15,2013-02-21 21:10:00,
2013-02-21 15:15:00,22.5,19.7,30.02,East,82,11.0,16.0,89,0.00,,,0.00,Wunderground v.1.15,2013-02-21 21:15:00,
2013-02-21 15:21:00,22.5,19.7,30.02,ENE,67,12.0,13.0,89,0.00,,,0.00,Wunderground v.1.15,2013-02-21 21:21:00,
2013-02-21 15:27:00,22.5,20.0,30.02,ENE,75,11.0,13.0,90,0.00,,,0.00,Wunderground v.1.15,2013-02-21 21:27:00,
2013-02-21 15:33:00,22.3,19.6,30.02,East,83,11.0,15.0,89,0.00,,,0.00,Wunderground v.1.15,2013-02-21 21:33:00,
2013-02-21 15:39:00,22.1,19.4,30.02,East,86,11.0,18.0,89,0.00,,,0.00,Wunderground v.1.15,2013-02-21 21:39:00,
2013-02-21 15:45:00,22.0,19.3,30.02,ENE,75,11.0,14.0,89,0.00,,,0.00,Wunderground v.1.15,2013-02-21 21:45:00,
2013-02-21 15:51:00,22.0,19.3,30.01,East,98,11.0,16.0,89,0.00,,,0.00,Wunderground v.1.15,2013-02-21 21:51:00,
2013-02-21 15:57:00,21.9,19.2,30.01,ENE,76,12.0,16.0,89,0.00,,,0.00,Wunderground v.1.15,2013-02-21 21:57:00,
2013-02-21 16:02:00,22.0,19.5,30.01,ENE,60,11.0,17.0,90,0.00,,,0.00,Wunderground v.1.15,2013-02-21 22:02:00,
2013-02-21 16:08:00,21.9,19.4,30.01,ENE,61,12.0,19.0,90,0.00,,,0.00,Wunderground v.1.15,2013-02-21 22:08:00,
2013-02-21 16:13:00,21.9,19.4,30.00,ENE,65,13.0,14.0,90,0.00,,,0.00,Wunderground v.1.15,2013-02-21 22:13:00,
2013-02-21 16:19:00,22.0,20.0,30.00,ENE,76,9.0,22.0,90,0.00,,,0.00,weatherlink.com 1.10,2013-02-21 22:19:00,
2013-02-21 16:24:00,22.0,19.5,30.00,ENE,69,9.0,19.0,90,0.00,,,0.00,Wunderground v.1.15,2013-02-21 22:24:00,
2013-02-21 16:30:00,21.7,19.2,30.00,ENE,76,12.0,15.0,90,0.00,,,0.00,Wunderground v.1.15,2013-02-21 22:30:00,
2013-02-21 16:36:00,21.6,19.1,30.00,ENE,72,13.0,18.0,90,0.00,,,0.00,Wunderground v.1.15,2013-02-21 22:36:00,
2013-02-21 16:41:00,21.6,19.1,29.99,ENE,78,12.0,14.0,90,0.00,,,0.00,Wunderground v.1.15,2013-02-21 22:41:00,
2013-02-21 16:47:00,21.5,19.0,29.99,ENE,68,13.0,21.0,90,0.00,,,0.00,Wunderground v.1.15,2013-02-21 22:47:00,
2013-02-21 16:52:00,21.4,18.9,29.99,East,91,13.0,13.0,90,0.00,,,0.00,Wunderground v.1.15,2013-02-21 22:52:00,
2013-02-21 16:58:00,21.4,18.9,29.99,East,88,11.0,13.0,90,0.00,,,0.00,Wunderground v.1.15,2013-02-21 22:58:00,
2013-02-21 17:03:00,21.4,18.9,29.99,East,85,11.0,11.0,90,0.00,,,0.00,Wunderground v.1.15,2013-02-21 23:03:00,
2013-02-21 17:08:00,21.4,18.9,29.98,East,79,11.0,21.0,90,0.00,,,0.00,Wunderground v.1.15,2013-02-21 23:08:00,
2013-02-21 17:14:00,21.3,18.8,29.98,East,94,12.0,16.0,90,0.00,,,0.00,Wunderground v.1.15,2013-02-21 23:14:00,
2013-02-21 17:19:00,21.3,18.8,29.98,ENE,75,13.0,16.0,90,0.00,,,0.00,Wunderground v.1.15,2013-02-21 23:19:00,
2013-02-21 17:24:00,21.2,18.7,29.98,East,94,13.0,14.0,90,0.00,,,0.00,Wunderground v.1.15,2013-02-21 23:24:00,
2013-02-21 17:30:00,21.2,18.7,29.98,ENE,64,11.0,11.0,90,0.00,,,0.00,Wunderground v.1.15,2013-02-21 23:30:00,
2013-02-21 17:35:00,21.2,18.7,29.98,East,83,11.0,15.0,90,0.00,,,0.00,Wunderground v.1.15,2013-02-21 23:35:00,
2013-02-21 17:41:00,21.2,18.7,29.98,East,88,12.0,14.0,90,0.00,,,0.00,Wunderground v.1.15,2013-02-21 23:41:00,
2013-02-21 17:47:00,21.1,18.6,29.98,ENE,66,12.0,16.0,90,0.00,,,0.00,Wunderground v.1.15,2013-02-21 23:47:00,
2013-02-21 17:52:00,21.1,18.6,29.98,East,88,12.0,13.0,90,0.00,,,0.00,Wunderground v.1.15,2013-02-21 23:52:00,
2013-02-21 17:57:00,21.1,18.6,29.98,East,86,12.0,16.0,90,0.00,,,0.00,Wunderground v.1.15,2013-02-21 23:57:00,
2013-02-21 18:05:00,21.0,18.5,29.98,East,90,12.0,16.0,90,0.00,,,0.00,Wunderground v.1.15,2013-02-22 00:05:00,
2013-02-21 18:11:00,21.0,18.5,29.98,ENE,77,10.0,15.0,90,0.00,,,0.00,Wunderground v.1.15,2013-02-22 00:11:00,
2013-02-21 18:19:00,21.0,18.5,29.98,ENE,71,10.0,15.0,90,0.00,,,0.00,Wunderground v.1.15,2013-02-22 00:19:00,
2013-02-21 18:25:00,21.0,18.5,29.98,East,80,11.0,11.0,90,0.00,,,0.00,Wunderground v.1.15,2013-02-22 00:25:00,
2013-02-21 18:31:00,21.0,18.5,29.98,ENE,74,11.0,11.0,90,0.00,,,0.00,Wunderground v.1.15,2013-02-22 00:31:00,
2013-02-21 18:36:00,21.1,19.0,29.97,NE,46,7.0,16.0,90,0.00,,,0.00,weatherlink.com 1.10,2013-02-22 00:36:00,
2013-02-21 18:41:00,21.0,18.5,29.97,ENE,65,10.0,10.0,90,0.00,,,0.00,Wunderground v.1.15,2013-02-22 00:41:00,
2013-02-21 18:47:00,21.1,18.6,29.97,ENE,78,10.0,15.0,90,0.00,,,0.00,Wunderground v.1.15,2013-02-22 00:47:00,
2013-02-21 18:53:00,21.1,18.6,29.96,ENE,69,11.0,14.0,90,0.00,,,0.00,Wunderground v.1.15,2013-02-22 00:53:00,
2013-02-21 18:58:00,21.2,18.7,29.97,ENE,78,11.0,14.0,90,0.00,,,0.00,Wunderground v.1.15,2013-02-22 00:58:00,
2013-02-21 19:04:00,21.2,18.7,29.97,East,80,10.0,15.0,90,0.00,,,0.00,Wunderground v.1.15,2013-02-22 01:04:00,
2013-02-21 19:10:00,21.3,18.8,29.97,East,88,10.0,10.0,90,0.00,,,0.00,Wunderground v.1.15,2013-02-22 01:10:00,
2013-02-21 19:16:00,21.3,18.8,29.97,East,80,10.0,12.0,90,0.00,,,0.00,Wunderground v.1.15,2013-02-22 01:16:00,
2013-02-21 19:22:00,21.4,19.0,29.97,ENE,70,11.0,18.0,90,0.00,,,0.00,weatherlink.com 1.10,2013-02-22 01:22:00,
2013-02-21 19:28:00,21.5,19.0,29.97,ENE,69,10.0,11.0,90,0.00,,,0.00,Wunderground v.1.15,2013-02-22 01:28:00,
2013-02-21 19:34:00,21.5,19.0,29.97,ENE,65,10.0,12.0,90,0.00,,,0.00,Wunderground v.1.15,2013-02-22 01:34:00,
2013-02-21 19:40:00,21.6,19.1,29.97,ENE,69,10.0,11.0,90,0.00,,,0.00,Wunderground v.1.15,2013-02-22 01:40:00,
2013-02-21 19:46:00,21.6,19.1,29.97,ENE,71,9.0,11.0,90,0.00,,,0.00,Wunderground v.1.15,2013-02-22 01:46:00,
2013-02-21 19:52:00,21.6,19.1,29.97,ENE,63,8.0,12.0,90,0.00,,,0.00,Wunderground v.1.15,2013-02-22 01:52:00,
2013-02-21 19:58:00,21.7,19.2,29.97,ENE,68,9.0,13.0,90,0.00,,,0.00,Wunderground v.1.15,2013-02-22 01:58:00,
2013-02-21 20:03:00,21.7,19.2,29.96,East,99,11.0,18.0,90,0.00,,,0.00,Wunderground v.1.15,2013-02-22 02:03:00,
2013-02-21 20:08:00,21.8,19.3,29.96,ENE,69,11.0,18.0,90,0.00,,,0.00,Wunderground v.1.15,2013-02-22 02:08:00,
2013-02-21 20:13:00,21.8,19.3,29.96,East,82,10.0,13.0,90,0.00,,,0.00,Wunderground v.1.15,2013-02-22 02:13:00,
2013-02-21 20:19:00,21.8,19.3,29.97,ENE,68,10.0,13.0,90,0.00,,,0.00,Wunderground v.1.15,2013-02-22 02:19:00,
2013-02-21 20:24:00,21.8,19.3,29.97,ENE,69,9.0,9.0,90,0.00,,,0.00,Wunderground v.1.15,2013-02-22 02:24:00,
2013-02-21 20:30:00,21.9,19.4,29.96,ENE,72,10.0,11.0,90,0.00,,,0.00,Wunderground v.1.15,2013-02-22 02:30:00,
2013-02-21 20:35:00,21.9,19.4,29.96,ENE,63,10.0,13.0,90,0.00,,,0.00,Wunderground v.1.15,2013-02-22 02:35:00,
2013-02-21 20:41:00,22.0,19.5,29.96,ENE,76,8.0,11.0,90,0.00,,,0.00,Wunderground v.1.15,2013-02-22 02:41:00,
2013-02-21 20:47:00,22.0,19.5,29.96,ENE,67,8.0,12.0,90,0.00,,,0.00,Wunderground v.1.15,2013-02-22 02:47:00,
2013-02-21 20:53:00,22.0,19.5,29.96,ENE,68,8.0,11.0,90,0.00,,,0.00,Wunderground v.1.15,2013-02-22 02:53:00,
2013-02-21 20:59:00,22.0,19.5,29.96,ENE,70,8.0,11.0,90,0.00,,,0.00,Wunderground v.1.15,2013-02-22 02:59:00,
2013-02-21 21:05:00,22.1,19.6,29.96,ENE,59,8.0,10.0,90,0.00,,,0.00,Wunderground v.1.15,2013-02-22 03:05:00,
2013-02-21 21:10:00,22.1,19.6,29.96,ENE,60,8.0,9.0,90,0.00,,,0.00,Wunderground v.1.15,2013-02-22 03:10:00,
2013-02-21 21:15:00,22.1,19.6,29.96,ENE,69,8.0,9.0,90,0.00,,,0.00,Wunderground v.1.15,2013-02-22 03:15:00,
2013-02-21 21:21:00,22.1,20.0,29.95,ENE,63,11.0,11.0,90,0.00,,,0.00,weatherlink.com 1.10,2013-02-22 03:21:00,
2013-02-21 21:26:00,22.2,19.7,29.95,ENE,59,8.0,9.0,90,0.00,,,0.00,Wunderground v.1.15,2013-02-22 03:26:00,
2013-02-21 21:32:00,22.2,20.0,29.95,NE,42,8.0,9.0,91,0.00,,,0.00,Wunderground v.1.15,2013-02-22 03:32:00,
2013-02-21 21:37:00,22.2,20.0,29.95,NE,55,7.0,10.0,91,0.00,,,0.00,Wunderground v.1.15,2013-02-22 03:37:00,
2013-02-21 21:43:00,22.3,20.1,29.95,ENE,74,7.0,12.0,91,0.00,,,0.00,Wunderground v.1.15,2013-02-22 03:43:00,
2013-02-21 21:49:00,22.3,20.1,29.95,NE,50,9.0,12.0,91,0.00,,,0.00,Wunderground v.1.15,2013-02-22 03:49:00,
2013-02-21 21:54:00,22.3,20.1,29.95,NE,48,7.0,8.0,91,0.00,,,0.00,Wunderground v.1.15,2013-02-22 03:54:00,
2013-02-21 21:59:00,22.3,20.1,29.95,ENE,65,6.0,11.0,91,0.00,,,0.00,Wunderground v.1.15,2013-02-22 03:59:00,
2013-02-21 22:04:00,22.3,20.1,29.94,ENE,61,9.0,14.0,91,0.00,,,0.00,Wunderground v.1.15,2013-02-22 04:04:00,
2013-02-21 22:10:00,22.2,20.0,29.94,East,83,10.0,10.0,91,0.00,,,0.00,Wunderground v.1.15,2013-02-22 04:10:00,
2013-02-21 22:15:00,22.2,19.7,29.94,ENE,63,11.0,15.0,90,0.00,,,0.00,Wunderground v.1.15,2013-02-22 04:15:00,
2013-02-21 22:20:00,22.0,19.5,29.94,ENE,78,11.0,11.0,90,0.00,,,0.00,Wunderground v.1.15,2013-02-22 04:20:00,
2013-02-21 22:26:00,22.0,19.5,29.94,ENE,69,10.0,11.0,90,0.00,,,0.00,Wunderground v.1.15,2013-02-22 04:26:00,
2013-02-21 22:31:00,21.9,19.4,29.94,ENE,57,11.0,11.0,90,0.00,,,0.00,Wunderground v.1.15,2013-02-22 04:31:00,
2013-02-21 22:36:00,21.9,20.0,29.94,NE,45,7.0,15.0,90,0.00,,,0.00,weatherlink.com 1.10,2013-02-22 04:36:00,
2013-02-21 22:42:00,21.8,19.3,29.94,ENE,65,11.0,13.0,90,0.00,,,0.00,Wunderground v.1.15,2013-02-22 04:42:00,
2013-02-21 22:47:00,21.7,19.2,29.94,ENE,67,11.0,15.0,90,0.00,,,0.00,Wunderground v.1.15,2013-02-22 04:47:00,
2013-02-21 22:52:00,21.7,19.0,29.94,ENE,67,11.0,17.0,90,0.00,,,0.00,weatherlink.com 1.10,2013-02-22 04:52:00,
2013-02-21 22:58:00,21.6,19.1,29.94,NE,48,10.0,16.0,90,0.00,,,0.00,Wunderground v.1.15,2013-02-22 04:58:00,
2013-02-21 23:00:00,21.6,19.1,29.94,NE,44,9.0,9.0,90,0.00,,,0.00,Wunderground v.1.15,2013-02-22 05:00:00,
2013-02-21 23:01:00,21.5,19.0,29.94,ENE,67,9.0,10.0,90,0.00,,,0.00,Wunderground v.1.15,2013-02-22 05:01:00,
2013-02-21 23:03:00,21.5,19.0,29.94,ENE,60,9.0,10.0,90,0.00,,,0.00,Wunderground v.1.15,2013-02-22 05:03:00,
2013-02-21 23:07:00,21.5,19.0,29.93,NE,43,8.0,10.0,90,0.00,,,0.00,Wunderground v.1.15,2013-02-22 05:07:00,
2013-02-21 23:12:00,21.3,18.8,29.93,NE,53,8.0,8.0,90,0.00,,,0.00,Wunderground v.1.15,2013-02-22 05:12:00,
2013-02-21 23:17:00,21.2,18.7,29.94,NE,48,8.0,11.0,90,0.00,,,0.00,Wunderground v.1.15,2013-02-22 05:17:00,
2013-02-21 23:23:00,21.0,18.5,29.94,ENE,59,9.0,10.0,90,0.00,,,0.00,Wunderground v.1.15,2013-02-22 05:23:00,
2013-02-21 23:29:00,20.8,18.3,29.93,ENE,60,9.0,11.0,90,0.00,,,0.00,Wunderground v.1.15,2013-02-22 05:29:00,
2013-02-21 23:34:00,20.7,18.2,29.94,NE,53,8.0,12.0,90,0.00,,,0.00,Wunderground v.1.15,2013-02-22 05:34:00,
2013-02-21 23:40:00,20.6,18.1,29.93,NE,46,7.0,7.0,90,0.00,,,0.00,Wunderground v.1.15,2013-02-22 05:40:00,
2013-02-21 23:45:00,20.6,18.1,29.94,ENE,61,7.0,9.0,90,0.00,,,0.00,Wunderground v.1.15,2013-02-22 05:45:00,
2013-02-21 23:51:00,20.5,18.0,29.93,NE,53,11.0,12.0,90,0.00,,,0.00,weatherlink.com 1.10,2013-02-22 05:51:00,
2013-02-21 23:56:00,20.4,17.9,29.93,NE,53,8.0,11.0,90,0.00,,,0.00,Wunderground v.1.15,2013-02-22 05:56:00,